Location: Unspecified
(40.7945°N, 111.1337°W)
Time: 18:09:00
(UTC-06:00)

CZ-3 Stage 3 - Visible Passes

Search period start: 22 March 2019 00:00
Search period end: 01 April 2019 00:00
Orbit: 471 x 34721 km, 30.5° (Epoch: 21 March)

Date Brightness Start Highest point End Pass type
(mag) Time Alt. Az. Time Alt. Az. Time Alt. Az.
24 Mar 5.7 04:11:42 30° S 04:19:04 43° SE 13:01:01 10° SE visible
27 Mar 5.6 04:01:54 33° S 04:08:33 43° SE 12:49:30 10° SE visible
30 Mar 5.6 03:52:04 35° S 03:58:03 44° SE 12:37:54 10° SE visible
